Location: Doux
(49.5045°N, 4.4321°E)
Time: 20:43:47
(UTC+00:00)

IDEFIX/ARIANE 42P - Pass Details

Date: 23 May 2024
Orbit: 783 x 799 km, 98.5° (Epoch: 16 June)

Event Time Altitude Azimuth Distance (km) Brightness Sun altitude
Rises 01:17:23 0° 17° (NNE) 3,317 7.6 -16.5°
Reaches altitude 10° 01:19:46 10° 21° (NNE) 2,384 6.4 -16.4°
Maximum altitude 01:24:59 61° 102° (ESE) 906 2.9 -16.0°
Enters shadow 01:28:31 21° 177° (S) 1,749 3.8 -15.8°
